Content
SEND FEEDBACK

Daily
Averages
Monthly
Summary
United States of America

RED BLUFF, CALIFORNIA


Home > North America > United States > California
Elevation: 344 feet     Latitude: 40 09N     Longitude: 122 15W

WEATHER
 
SELECT A DAY
Number of Records: 186,457;   Date Range: 1/1/95 - 11/21/14
 
SHARE

PRINT THIS DATA

[ ← Previous Day ]
WEATHER ALMANAC - FEBRUARY 17, 2013
[ Next Day → ]
[ °C ]   °F
Weather ElementAverageHighLow
Temperature51.8 °F66.9 °F (3:54 pm)37.9 °F (11:54 pm)
Dewpoint25.1 °F37 °F (2:54 am)14 °F (3:54 pm)
Humidity41.5 %76 % (1:54 am)13 % (3:54 pm)
Barometer30.01 in30.07 in (8:54 am)29.94 in (4:54 pm)
Wind Speed9.5 mph21.9 mph (9:54 am)
Wind Gust27.6 mph (9:54 am)
Weather ElementAverage
Visibility10 mi
Wind DirectionWNW (303.5 °)

Weather ElementTotal
Precipitation---
Heating Degree Days12.6 (Base 65)
Growing Degree Days2.4 (Base 50)
Averaged from 23 records on February 17, 2013
WEATHER CONDITIONS BREAKOUT
WIND DIRECTION BREAKOUT
WEATHER BY HOUR - FEBRUARY 17, 2013
[ °C ]   °F
Local TimeTemperatureDewpointHumidityBarometerVisibilityWind DirectionWind SpeedGust SpeedPrecipitationEventsConditions
1:54 AM43.0 °F36.0 °F76 %30.05 in10.0 miNW (320°)9.2 mphClear
2:54 AM46.0 °F37.0 °F71 %30.03 in10.0 miNorth (350°)6.9 mphClear
3:54 AM44.1 °F35.1 °F71 %30.03 in10.0 miNNW (340°)8.1 mphClear
4:54 AM44.1 °F34.0 °F68 %30.04 in10.0 miNW (320°)8.1 mphClear
5:54 AM46.0 °F30.9 °F56 %30.04 in10.0 miNW (320°)9.2 mphClear
6:54 AM45.0 °F30.0 °F56 %30.04 in10.0 miNNW (340°)5.8 mphClear
7:54 AM48.9 °F28.9 °F46 %30.06 in10.0 miNW (320°)11.5 mphClear
8:54 AM53.1 °F26.1 °F35 %30.07 in10.0 miNorth (350°)15.0 mph25.3 mphClear
9:54 AM57.0 °F23.0 °F27 %30.07 in10.0 miNorth (360°)21.9 mph27.6 mphClear
10:54 AM59.0 °F19.0 °F21 %30.06 in10.0 miNorth (350°)20.7 mph27.6 mphClear
11:54 AM61.0 °F19.9 °F21 %30.06 in10.0 miNNW (330°)16.1 mph25.3 mphClear
12:54 PM63.0 °F19.0 °F18 %30.02 in10.0 miNorth (350°)13.8 mphClear
1:54 PM64.9 °F18.0 °F16 %29.99 in10.0 miNorth (350°)12.7 mphClear
2:54 PM66.0 °F15.1 °F14 %29.97 in10.0 miNorth (350°)11.5 mphClear
3:54 PM66.9 °F14.0 °F13 %29.96 in10.0 miNorth (360°)10.4 mphClear
4:54 PM64.9 °F17.1 °F16 %29.94 in10.0 miNorth (360°)5.8 mphClear
5:54 PM59.0 °F18.0 °F20 %29.94 in10.0 miCalmClear
6:54 PM48.9 °F25.0 °F39 %29.95 in10.0 miWest (280°)9.2 mphClear
7:54 PM48.9 °F26.1 °F41 %29.96 in10.0 miWNW (290°)10.4 mphClear
8:54 PM43.0 °F26.1 °F51 %29.97 in10.0 miCalmClear
9:54 PM42.1 °F26.1 °F53 %29.98 in10.0 miNW (310°)4.6 mphClear
10:54 PM39.0 °F26.1 °F60 %29.98 in10.0 miNW (310°)3.5 mphClear
11:54 PM37.9 °F27.0 °F65 %29.98 in10.0 miNW (320°)4.6 mphClear
Hourly data recorded from KRBL, located miles away from Red Bluff, California







STORIES FROM OUR PARTNERS